COSMOS 2491 DEB, 57549

Orbit data source: Space-Track

COSMOS 2491 DEB, 57549 is space debris in LEO originally from a launch on Wed, 25 Dec 2013 UTC launched from the Plesetsk Missile And Space Complex (PKMTR). Debris objects in space refer to the collection of defunct objects orbiting the Earth. Examples of debris include non-operational satellites, rocket bodies, and fragments generated from explosions, collisions, or faulty payload assembly.

Loading next visibility...
Identifier
57549, 2013-076AL
Orbit
LEO
Country
Flag of CISCIS
Related business
Manufacturer
TsNIIKhM
Mission
Spacecraft
Bus & Motor
Unknown
Mass
Unknown
Launch date (UTC)
2013-12-25 (12 years ago)
Launch vehicle
Unknown
Launch site
Plesetsk Missile And Space Complex (PKMTR)
Object type
Payload
Rocket body
Debris
Shape & HBR
Unknown shape, 0.1 m
Radar Cross Section
Small (<0.1 m²)

Expand to show TLE details & history
Last TLE update: 6 days ago

TLE from 6 days ago
0 COSMOS 2491 DEB
1 57549U 13076AL  26130.68749853  .00002255  00000-0  10133-1 0  9992
2 57549  82.4646 119.8281 0153397 169.3033 191.1391 12.74557699139288
Epoch: 2026-05-10T16:29Z
TLE epoch observation values (Epoch: 2026-05-10T16:29:59.872Z)
Latitude
-0.00004°
Longitude
3.84163°
Altitude
1,482.778 km
Speed
7.068 km/s
True Right ascension
07h 59m 18s
True Declination
0° 00' 00"
Sunlit
Object was in daylight at epoch
Visualization orbit readout
Latitude
Unknown
Longitude
Unknown
Altitude
Unknown
Speed
Unknown
Apparent Right ascension
Unknown
Apparent Declination
Unknown
Sunlit
N/A
Visualization observer readout
Local Sidereal Time
19:09:29
Azimuth
Unknown
Elevation
Unknown
Doppler factor
Unknown
Orbital elements
Apogee altitude
1,479.448 km
Perigee altitude
1,242.024 km
Semi-major axis
7,738.873 km
Eccentricity
0.01534
Inclination
82.4646°
RAAN
119.8281°
Arg. of periapsis
169.3033°
True anomaly
190.80579°
Mean anomaly
191.1391°
Eccentric anomaly
190.97182°
Mean motion
3.18806 °/min
Orbital period
112.92 mins
BSTAR
0.010133
Loading maneuver chart data...
Computing Atmospheric mass density...
Loading historical data...
Loading historical data...
Loading historical data...
Loading historical data...
Loading historical data...
Loading historical data...
Loading historical data...

Documentation

Showing up to 5 results
|